CZ-4B DEB, 48623

Orbit data source: Space-Track

CZ-4B DEB, 48623 is space debris in LEO originally from a launch on Wed, 19 May 2021 UTC launched from the Jiuquan Satellite Launch Center, China (JSC). Debris objects in space refer to the collection of defunct objects orbiting the Earth. Examples of debris include non-operational satellites, rocket bodies, and fragments generated from explosions, collisions, or faulty payload assembly.

Loading next visibility...
Identifier
48623, 2021-043C
Orbit
LEO
Country
Flag of CNCN / PRC
Related business
Manufacturer
SAST
Mission
Spacecraft
Bus & Motor
Unknown
Mass
Unknown
Launch date (UTC)
2021-05-19 (5 years ago)
Launch vehicle
Unknown
Launch site
Jiuquan Satellite Launch Center, China (JSC)
Object type
Payload
Rocket body
Debris
Shape & HBR
Unknown shape, 0.1 m
Radar Cross Section
Medium (>0.1 m² and <1 m²)

Expand to show TLE details & history
Last TLE update: 3 days ago

TLE from 3 days ago
0 CZ-4B DEB
1 48623U 21043C   26170.65646347  .00000050  00000-0  10725-3 0  9993
2 48623  66.0814 267.6934 0036742 302.6617  57.0912 13.89764921258025
Epoch: 2026-06-19T15:45Z
TLE epoch observation values (Epoch: 2026-06-19T15:45:18.443Z)
Latitude
-0.00009°
Longitude
123.48421°
Altitude
916.955 km
Speed
7.401 km/s
True Right ascension
17h 50m 46s
True Declination
0° 00' 00"
Sunlit
Object was in full shadow at epoch
Visualization orbit readout
Latitude
Unknown
Longitude
Unknown
Altitude
Unknown
Speed
Unknown
Apparent Right ascension
Unknown
Apparent Declination
Unknown
Sunlit
N/A
Visualization observer readout
Local Sidereal Time
21:24:07
Azimuth
Unknown
Elevation
Unknown
Doppler factor
Unknown
Orbital elements
Apogee altitude
954.776 km
Perigee altitude
901.088 km
Semi-major axis
7,306.069 km
Eccentricity
0.00367
Inclination
66.0814°
RAAN
267.6934°
Arg. of periapsis
302.6617°
True anomaly
57.44555°
Mean anomaly
57.0912°
Eccentric anomaly
57.26829°
Mean motion
3.4755 °/min
Orbital period
103.58 mins
BSTAR
0.00010725
Loading maneuver chart data...
Computing Atmospheric mass density...
Loading historical data...
Loading historical data...
Loading historical data...
Loading historical data...
Loading historical data...
Loading historical data...
Loading historical data...
Other satellites on launch #43 in the year 2021 (2021-05-19 UTC)

Documentation

Showing up to 5 results
|